Overview Statistics Trail Chart Weather Telemetry Raw packets
 

This is the latest recevied weather packets stored in our database for station/object KI5RAB. If no packets are shown the sender has not sent any weather packets the latest 10 day(s).

<< 67 68 69 70 71 72 73 >>
Time Temp. Humidity Pressure Rain* Wind** Luminosity Snow
1788207703 36.67° C 43% 1017.9 hPa 0 mm - 616 W/m² -
1788207402 36.11° C 43% 1018.2 hPa 0 mm - 627 W/m² -
1788207097 36.67° C 43% 1018.1 hPa 0 mm - 637 W/m² -
1788206794 36.11° C 45% 1018.2 hPa 0 mm - 653 W/m² -
1788206493 36.67° C 43% 1018.5 hPa 0 mm - 651 W/m² -
1788206189 36.67° C 42% 1018.3 hPa 0 mm - 665 W/m² -
1788205884 36.11° C 44% 1018.4 hPa 0 mm - 682 W/m² -
1788205574 35.56° C 46% 1018.5 hPa 0 mm - 682 W/m² -
1788205269 35.56° C 46% 1018.8 hPa 0 mm - 694 W/m² -
1788204964 35.56° C 49% 1018.8 hPa 0 mm - 689 W/m² -
1788204664 35° C 48% 1018.8 hPa 0 mm - 706 W/m² -
1788204358 35.56° C 47% 1019 hPa 0 mm - 152 W/m² -
1788204054 36.11° C 46% 1018.9 hPa 0 mm - 713 W/m² -
1788203749 35.56° C 46% 1019.1 hPa 0 mm - 712 W/m² -
1788203445 36.11° C 48% 1019 hPa 0 mm - 710 W/m² -
1788203140 35° C 51% 1019.4 hPa 0 mm - 712 W/m² -
1788202839 35° C 50% 1019.6 hPa 0 mm - 720 W/m² -
1788202535 34.44° C 50% 1019.5 hPa 0 mm - 735 W/m² -
1788202231 33.89° C 51% 1019.4 hPa 0 mm - 282 W/m² -
1788201930 33.89° C 51% 1019.4 hPa 0 mm - 738 W/m² -
1788201626 34.44° C 51% 1019.6 hPa 0 mm - 229 W/m² -
1788201325 33.89° C 52% 1019.7 hPa 0 mm - 784 W/m² -
1788201025 34.44° C 53% 1020 hPa 0 mm - 794 W/m² -
1788200719 34.44° C 52% 1019.8 hPa 0 mm - 378 W/m² -
1788200426 35° C 54% 1019.7 hPa 0 mm - 210 W/m² -

* Rain latest hour (hover to see other rain measurements)
** Current wind speed in m/s (hover to see current wind gust speed)